Temperature
28 29 29 29 29 28 28 29 29 29 29 28 27 26 25 23 22 21 20 20 19 18 17 17 17 17 16 16 16 16 16 16 16 16 16 16 16 16 16 16 15 15 15 15
27 28 28 28 28 28 28 29 29 29 28 27 26 25 24 23 22 21 20 19 18 18 17 17 17 16 16 16 16 16 16 16 16 16 16 16 16 15 15 15 15 15 15 15
26 27 27 26 28 28 28 28 28 28 28 26 25 24 23 22 22 21 20 19 18 18 17 17 17 17 16 16 16 16 16 16 16 16 16 16 16 15 15 15 15 15 15 15
26 25 25 27 27 27 27 27 27 27 26 25 24 22 21 21 21 20 20 19 18 18 17 17 17 17 16 16 16 16 16 16 16 15 15 15 15 15 15 15 15 15 14 14
26 25 25 25 26 26 26 26 26 26 25 24 22 21 21 19 19 19 18 18 17 17 17 17 16 16 16 16 16 15 15 15 15 15 15 15 15 15 15 15 14 14 14 14
25 24 24 26 25 24 25 25 25 24 24 23 23 25 22 17 17 17 17 17 17 17 16 16 16 16 16 16 15 15 15 15 15 15 15 15 15 14 14 14 14 14 13 13
24 24 25 24 23 23 24 24 22 22 22 22 22 21 18 16 16 16 16 16 16 16 16 16 16 16 15 15 15 15 15 15 15 14 14 14 14 14 14 13 13 13 13 12
23 23 24 22 23 23 22 20 20 21 21 20 18 17 16 16 15 15 15 15 15 15 15 15 15 15 15 15 15 15 14 14 14 14 14 14 14 13 13 13 12 12 12 11
23 22 20 20 20 19 19 19 19 19 19 18 17 16 16 15 14 14 14 14 15 15 14 14 14 14 14 14 14 14 14 14 14 13 13 13 13 13 12 12 11 11 11 10
20 21 20 19 19 18 18 18 18 18 18 17 16 16 15 14 14 14 14 14 14 14 14 14 14 14 14 14 13 13 13 13 12 12 12 12 11 11 11 11 11 10 10 9
20 20 19 19 18 17 17 17 17 17 16 16 15 15 14 14 13 13 13 13 13 13 13 13 13 13 13 13 13 13 12 12 11 11 11 11 10 10 10 10 10 10 9 9
20 19 19 18 17 16 16 16 16 15 15 15 14 14 13 13 12 12 12 12 12 12 12 12 12 12 12 12 12 12 11 11 11 10 10 10 9 9 8 8 8 8 8 8
17 17 17 16 16 15 15 15 14 14 14 14 13 13 13 12 12 12 12 12 12 11 11 11 11 11 11 11 11 11 11 10 10 9 9 9 8 8 7 7 7 7 7 7
15 15 16 15 15 14 14 14 14 13 13 13 12 12 12 12 11 11 11 11 11 11 11 11 10 10 10 10 11 10 10 9 9 8 8 8 8 7 7 7 6 6 5 5
14 15 15 14 14 13 13 13 13 13 12 12 11 11 11 11 11 10 10 10 10 10 10 10 10 9 9 9 9 9 9 8 8 8 8 8 7 7 7 6 6 5 4 4
14 14 13 13 13 13 13 13 12 12 11 11 11 11 10 10 10 10 10 10 10 9 9 9 9 9 9 9 9 8 8 8 8 7 7 7 7 6 6 5 5 5 4 4
13 13 13 13 12 12 12 12 12 11 11 11 10 10 10 9 9 9 9 9 9 9 9 8 8 8 8 8 8 8 7 7 7 7 7 6 6 6 6 5 5 5 5 4
12 12 12 12 12 11 11 11 11 10 10 10 10 9 9 9 8 8 8 8 8 8 8 8 8 8 8 8 8 8 7 7 7 7 6 6 6 6 6 6 5 5 4 4
11 11 11 11 11 10 10 10 10 10 9 9 9 9 8 8 8 8 8 8 8 7 7 7 8 8 7 7 7 7 7 7 7 6 6 6 6 6 6 6 5 5 5 5
10 10 10 10 10 10 9 9 9 9 9 9 8 8 8 8 7 7 8 8 7 7 7 7 7 7 7 7 7 7 7 7 7 6 6 6 6 6 6 6 5 5 5 4
10 9 9 9 9 9 9 9 9 8 8 8 8 8 8 7 7 7 7 7 7 7 7 7 7 7 7 7 7 7 7 7 7 6 6 6 6 6 6 5 5 5 5 4
9 9 9 8 8 8 8 8 8 8 8 8 8 8 8 7 7 7 7 7 7 7 7 7 7 7 7 7 7 7 7 7 7 6 6 6 6 6 5 5 5 5 5 4
8 8 8 8 8 8 8 8 8 8 8 8 7 8 8 7 7 7 7 7 7 7 7 7 7 7 7 7 7 7 7 7 7 6 6 6 6 6 6 5 5 5 5 4
8 8 8 8 8 8 8 8 7 7 7 7 7 7 7 7 7 7 7 7 7 7 7 7 7 7 7 7 7 7 7 6 6 6 6 6 6 6 6 5 5 5 5 4
8 7 7 7 7 7 7 7 7 7 8 7 7 7 7 8 7 7 7 7 7 7 6 6 6 6 7 7 7 7 6 7 7 6 6 6 6 6 5 5 5 5 5 4
7 7 7 8 8 8 8 8 8 8 8 8 7 7 7 7 7 7 7 6 6 6 6 6 6 6 7 7 7 6 6 6 6 6 6 6 6 6 5 5 5 5 5 4
7 7 7 8 8 8 8 8 8 8 8 8 7 7 7 7 7 7 7 7 6 6 6 6 6 7 7 7 7 6 6 6 6 6 6 6 6 5 5 5 5 5 4 4
Wind_Speed
11 6 9 12 13 13 14 12 10 8 6 3 3 4 5 6 7 8 9 9 8 8 8 8 7 7 7 8 8 8 9 9 9 9 9 8 8 8 8 8 9 9 9 8
11 10 10 11 12 12 12 10 10 7 4 2 4 5 5 6 7 7 8 8 8 8 8 8 8 8 7 7 8 8 8 8 8 8 9 8 8 8 8 8 8 9 9 9
12 11 11 14 13 13 11 9 10 9 4 5 5 5 5 5 5 6 7 7 7 7 7 7 8 8 8 8 8 9 8 8 8 8 9 9 9 8 8 8 8 8 8 8
10 11 15 7 3 6 8 7 6 3 3 4 5 6 5 4 4 4 5 5 6 6 6 6 7 8 8 8 8 8 8 8 8 9 9 9 8 8 8 8 8 8 8 8
10 14 12 5 5 7 8 7 5 4 4 5 7 7 6 5 4 3 3 4 4 5 6 6 7 7 8 8 8 8 8 8 8 8 9 10 9 9 8 8 8 8 8 9
11 14 13 8 6 3 5 8 4 4 5 6 6 6 4 5 4 5 4 4 3 4 5 6 6 8 9 9 8 8 7 7 7 7 9 10 10 10 9 9 9 9 10 9
13 12 8 4 5 6 9 3 4 3 4 4 2 3 6 6 5 5 5 4 4 4 5 5 5 7 8 8 7 7 7 7 8 8 9 10 10 9 10 10 11 11 12 11
12 13 9 5 4 4 2 5 3 2 3 5 7 8 7 6 5 5 5 5 5 5 5 4 5 7 7 7 7 8 9 9 8 8 8 9 10 10 11 12 12 12 12 12
5 2 5 3 2 3 2 2 2 2 3 5 7 7 6 6 5 5 5 5 4 5 6 5 5 6 7 7 8 9 10 9 9 10 8 9 10 10 10 10 10 10 10 11
2 3 3 3 2 2 2 2 2 2 3 5 6 6 6 6 5 5 5 5 5 6 6 6 5 6 7 8 9 11 11 11 10 10 10 10 8 8 8 8 9 10 10 11
5 3 2 3 2 2 3 3 3 3 4 5 6 6 6 6 6 5 5 5 6 7 7 7 7 7 7 8 11 12 12 12 12 11 12 12 11 10 9 8 8 10 10 10
4 2 2 2 2 2 2 3 3 4 5 6 6 7 7 7 6 6 6 6 7 8 8 8 8 8 7 8 11 13 12 12 11 11 11 12 13 14 20 16 18 17 14 13
0 1 1 1 1 1 2 3 3 4 6 6 6 7 8 8 7 7 7 8 8 8 9 9 9 8 8 9 11 13 13 12 11 11 11 12 12 13 14 15 20 19 18 17
1 1 2 2 1 2 3 3 4 5 6 6 7 8 8 9 8 8 8 8 9 9 10 10 10 9 9 11 13 14 14 13 12 11 11 11 11 12 12 13 13 11 13 15
4 4 3 2 2 2 3 5 6 7 7 7 8 9 9 10 10 9 9 10 10 11 11 11 11 10 10 12 14 14 13 11 11 11 11 11 11 11 12 13 12 12 11 10
4 4 4 4 4 4 5 7 8 8 8 9 9 10 11 11 11 11 10 10 11 12 11 11 11 10 11 13 14 13 12 15 13 11 11 11 11 11 11 11 12 11 11 10
5 5 6 6 6 6 6 7 8 9 9 10 11 12 13 13 13 12 12 11 12 12 12 12 12 11 12 13 13 12 12 13 14 12 11 11 11 11 11 11 11 10 10 8
5 4 4 5 6 7 8 8 8 10 10 11 12 13 13 13 13 13 13 13 13 13 12 11 12 12 12 12 11 11 11 11 11 11 11 10 10 10 10 10 11 10 10 9
5 5 5 5 6 8 8 9 9 10 11 12 13 13 13 13 13 13 13 13 13 13 11 11 12 12 12 12 11 10 11 12 11 11 11 10 10 10 9 9 9 9 8 8
6 6 7 7 8 9 10 10 11 12 12 13 14 14 14 13 13 13 13 11 9 9 11 11 11 11 11 10 8 10 11 12 12 11 10 10 10 9 9 9 9 8 8 7
7 8 9 9 10 10 11 12 12 13 13 13 14 14 14 13 13 12 12 11 10 10 11 10 9 10 10 9 7 10 11 11 10 10 10 9 9 9 9 8 8 7 7 6
8 9 11 12 12 12 11 12 13 14 14 14 14 15 15 14 13 11 10 9 10 9 9 9 9 10 9 8 9 10 10 10 9 9 9 8 8 8 8 8 7 7 6 6
9 11 12 13 14 14 14 13 14 14 14 14 14 14 13 12 10 10 10 9 10 8 8 9 11 10 6 7 9 9 10 9 9 8 8 8 7 7 7 7 6 6 6 5
12 13 13 14 14 15 15 13 13 12 14 13 13 13 12 11 10 9 10 10 10 10 9 10 10 7 5 7 7 8 8 8 7 7 7 7 6 6 6 6 6 5 5 5
13 14 14 14 13 13 14 14 14 14 13 11 12 11 10 9 10 10 11 11 11 11 10 10 8 5 5 6 7 7 6 6 6 6 6 6 5 6 5 5 5 5 5 5
12 11 11 11 11 11 11 11 11 11 11 11 10 9 9 10 11 10 10 11 12 10 9 8 8 6 6 6 6 6 6 7 6 5 6 5 6 5 5 5 5 4 4 4
12 11 10 10 9 9 9 10 10 10 10 11 11 10 10 10 10 10 10 9 9 8 7 7 6 6 6 6 6 6 5 5 5 5 5 5 5 5 5 5 4 4 4 4
Wind_Direction
242 229 208 210 205 204 218 236 242 227 225 189 159 154 147 148 152 157 161 163 164 166 166 168 169 171 176 178 178 177 179 183 184 182 180 178 175 175 173 172 171 168 167 166
219 214 214 218 214 209 218 230 240 241 227 106 122 137 141 148 154 162 166 166 165 166 169 172 173 175 177 176 175 175 180 180 175 171 169 167 167 165 160 159 158 155 157 156
217 204 208 219 217 214 215 224 234 236 215 144 145 141 141 149 154 159 163 163 168 171 173 172 176 176 178 177 174 173 174 171 167 165 162 161 156 153 153 150 146 144 146 144
216 203 223 213 171 218 220 226 239 232 158 148 133 119 103 116 135 142 154 160 164 169 169 171 170 171 172 172 169 170 170 167 164 160 156 150 145 142 142 138 135 134 132 130
218 219 220 190 183 194 208 221 214 202 167 142 134 138 111 80 85 99 114 135 151 161 161 163 165 164 160 159 160 159 161 161 162 159 154 146 140 138 135 130 127 124 121 120
223 231 229 210 155 167 215 219 175 179 172 165 183 210 124 87 71 73 76 98 123 140 146 153 161 160 158 156 156 155 154 152 149 148 147 142 138 135 129 123 119 116 111 108
225 231 233 108 133 181 221 204 110 153 166 174 149 57 102 97 81 80 83 90 105 122 134 144 153 158 157 150 147 144 138 133 130 130 132 131 128 126 125 120 115 111 104 97
225 231 222 109 171 210 62 76 95 113 134 123 105 105 107 97 88 86 87 89 100 110 109 115 134 144 142 138 135 131 127 124 121 120 122 124 123 122 122 122 117 110 104 97
231 220 76 88 69 49 63 100 100 104 122 126 124 121 111 100 92 89 90 91 96 107 103 98 111 132 136 136 132 126 120 117 115 112 110 115 119 121 121 121 119 117 114 108
210 158 111 95 96 101 95 98 93 106 126 132 131 124 116 110 105 100 94 97 102 103 100 98 100 109 118 125 124 121 117 113 109 107 102 95 95 103 114 121 123 123 119 115
220 190 172 143 97 88 97 96 102 109 121 127 124 119 117 116 112 106 100 96 101 102 100 96 99 102 110 118 120 116 113 109 106 102 100 92 82 70 82 78 100 116 118 118
232 156 202 133 101 97 107 103 106 110 111 114 117 118 117 114 112 109 106 101 100 98 97 94 94 96 102 111 118 118 114 110 109 108 106 104 100 84 64 72 73 75 81 97
354 60 33 119 114 101 109 97 105 114 119 118 114 119 119 118 115 110 107 104 102 100 99 96 95 93 96 107 111 112 113 113 112 113 113 112 112 111 104 82 71 70 76 88
213 215 216 196 154 122 119 115 112 113 112 114 115 117 118 117 113 108 104 104 103 101 98 96 96 94 98 105 107 109 109 108 111 112 113 114 116 116 116 115 109 94 80 89
231 237 233 195 170 156 147 145 136 128 124 120 119 120 119 116 111 106 105 106 104 100 99 99 97 97 104 108 108 110 110 112 111 113 114 114 115 114 113 114 114 115 115 108
224 217 205 196 187 172 166 156 146 140 135 129 124 119 115 112 109 106 105 107 106 103 103 103 101 103 109 111 110 108 108 113 117 117 116 116 117 118 119 121 121 122 124 128
213 213 207 199 186 174 163 154 147 142 137 131 126 122 119 114 110 107 105 104 102 101 102 103 104 107 110 113 113 114 116 118 121 119 118 119 121 121 123 124 125 125 124 120
215 217 210 192 178 158 143 138 136 135 133 129 125 123 121 119 117 115 112 108 104 98 97 103 108 111 110 112 114 117 120 123 121 118 120 122 123 123 124 124 126 125 126 129
194 190 177 161 146 139 134 131 130 129 130 129 125 121 118 117 118 118 116 112 110 106 105 107 108 111 112 115 117 119 121 121 119 119 119 123 125 124 126 128 129 129 131 133
166 159 149 142 136 134 129 125 125 126 126 125 122 119 118 119 121 120 115 108 105 110 117 117 117 113 117 120 126 123 124 124 124 126 129 132 129 129 131 131 131 131 131 130
144 139 137 134 129 127 127 128 128 128 128 127 125 124 123 123 123 120 117 110 109 116 120 121 121 122 122 125 131 123 124 124 125 127 129 130 130 131 130 131 132 134 135 136
129 129 128 126 124 120 121 123 125 126 125 124 124 124 123 121 119 113 107 113 122 129 130 124 119 111 119 133 125 122 124 124 125 126 128 130 133 135 137 139 140 141 140 139
123 123 122 122 121 119 117 119 121 122 122 123 125 125 123 121 123 122 120 122 128 129 122 113 110 114 128 130 121 125 126 129 130 132 134 138 140 143 145 148 148 147 147 148
116 116 116 116 116 116 115 114 115 117 117 118 120 121 122 122 119 114 114 110 107 114 114 113 118 127 149 128 126 128 130 134 139 142 142 143 146 149 151 154 154 154 156 163
112 113 116 118 117 116 117 119 120 120 118 117 118 120 119 116 117 117 118 120 121 121 121 124 131 151 148 126 127 128 134 136 137 138 140 144 149 151 155 159 161 164 168 173
111 114 115 115 117 122 126 126 125 125 125 123 121 120 118 116 117 120 122 126 126 126 129 135 144 162 141 134 134 139 139 138 146 154 148 153 156 159 161 163 169 178 181 186
105 108 112 113 116 120 122 123 124 126 127 126 124 123 123 123 123 125 128 132 136 136 137 144 148 150 146 145 144 146 146 147 152 154 156 161 166 170 168 172 182 188 200 200
Height
1436 1435 1437 1441 1444 1447 1450 1446 1450 1449 1449 1450 1454 1459 1463 1466 1469 1472 1474 1477 1479 1481 1483 1484 1486 1488 1490 1491 1493 1495 1496 1498 1500 1502 1505 1508 1510 1513 1515 1518 1520 1523 1525 1528
1443 1439 1440 1443 1441 1444 1446 1445 1446 1446 1449 1451 1456 1460 1464 1466 1469 1471 1474 1476 1478 1480 1482 1483 1485 1487 1489 1490 1492 1493 1495 1497 1499 1501 1504 1506 1509 1511 1513 1515 1518 1521 1523 1526
1444 1440 1444 1450 1442 1442 1444 1444 1444 1447 1449 1453 1457 1461 1464 1466 1468 1470 1473 1475 1477 1478 1480 1482 1484 1486 1487 1489 1491 1492 1494 1496 1498 1500 1502 1504 1507 1510 1512 1514 1517 1520 1522 1524
1440 1448 1459 1441 1438 1439 1442 1444 1445 1447 1450 1454 1458 1463 1466 1467 1469 1471 1472 1474 1476 1477 1479 1481 1483 1484 1486 1488 1490 1491 1493 1495 1497 1499 1501 1503 1506 1508 1510 1512 1515 1518 1521 1523
1441 1447 1445 1444 1441 1442 1445 1447 1447 1449 1453 1457 1461 1463 1466 1469 1470 1471 1472 1473 1475 1476 1478 1479 1481 1483 1485 1486 1488 1490 1492 1494 1496 1498 1500 1502 1504 1507 1509 1511 1514 1517 1520 1522
1442 1447 1451 1440 1441 1445 1447 1450 1449 1452 1454 1457 1459 1456 1463 1469 1470 1471 1471 1472 1474 1475 1476 1478 1480 1482 1483 1485 1487 1489 1491 1493 1495 1497 1499 1501 1503 1506 1509 1511 1513 1516 1519 1521
1442 1445 1440 1440 1444 1447 1454 1450 1453 1454 1456 1458 1459 1461 1467 1469 1470 1471 1471 1472 1473 1474 1476 1477 1479 1481 1482 1484 1485 1488 1489 1492 1494 1496 1498 1500 1503 1506 1508 1511 1513 1515 1517 1520
1441 1446 1446 1446 1446 1447 1450 1454 1455 1457 1458 1461 1463 1465 1467 1469 1470 1471 1471 1472 1473 1474 1475 1476 1477 1479 1480 1482 1484 1486 1488 1490 1492 1495 1497 1499 1502 1504 1507 1510 1512 1515 1517 1519
1438 1443 1448 1449 1450 1453 1455 1456 1457 1458 1460 1462 1464 1466 1468 1469 1470 1471 1472 1472 1473 1473 1474 1475 1476 1478 1479 1481 1482 1484 1486 1488 1491 1494 1496 1499 1501 1504 1506 1509 1512 1514 1517 1520
1444 1445 1449 1451 1453 1455 1456 1457 1458 1459 1461 1462 1464 1466 1467 1469 1470 1471 1472 1472 1473 1474 1474 1475 1476 1476 1478 1480 1481 1483 1485 1487 1490 1492 1495 1498 1501 1504 1506 1509 1511 1514 1517 1521
1444 1448 1450 1452 1454 1456 1456 1457 1458 1459 1461 1462 1464 1465 1467 1469 1470 1471 1472 1473 1474 1474 1474 1475 1475 1476 1478 1479 1481 1483 1485 1487 1490 1493 1495 1498 1501 1504 1507 1509 1512 1515 1518 1522
1443 1448 1449 1452 1455 1456 1457 1457 1458 1460 1461 1462 1463 1465 1466 1468 1470 1471 1472 1473 1474 1474 1474 1475 1476 1477 1478 1480 1482 1483 1486 1488 1491 1494 1497 1499 1502 1505 1509 1512 1515 1519 1521 1524
1448 1450 1451 1453 1455 1456 1457 1458 1459 1460 1460 1462 1463 1465 1466 1468 1470 1471 1472 1473 1474 1475 1475 1476 1477 1478 1480 1482 1483 1485 1487 1490 1493 1496 1499 1502 1505 1508 1511 1516 1520 1522 1525 1528
1450 1451 1452 1453 1454 1455 1456 1457 1458 1459 1461 1462 1463 1465 1466 1468 1470 1471 1473 1474 1475 1476 1477 1478 1479 1481 1482 1484 1486 1487 1490 1493 1496 1499 1502 1505 1509 1513 1515 1518 1521 1525 1529 1532
1449 1450 1451 1452 1454 1455 1455 1457 1458 1459 1461 1462 1463 1465 1466 1468 1470 1472 1474 1475 1476 1477 1479 1480 1482 1484 1485 1487 1489 1491 1493 1496 1499 1502 1506 1509 1512 1516 1519 1522 1525 1528 1532 1535
1447 1449 1450 1451 1452 1453 1455 1456 1457 1459 1461 1462 1464 1465 1467 1469 1471 1473 1475 1477 1478 1480 1482 1483 1485 1487 1489 1490 1492 1494 1497 1500 1503 1506 1510 1513 1516 1519 1523 1526 1529 1533 1536 1539
1445 1446 1448 1450 1451 1452 1454 1455 1457 1459 1461 1463 1464 1466 1468 1470 1473 1475 1477 1479 1481 1483 1485 1486 1488 1490 1492 1494 1496 1499 1502 1505 1508 1511 1514 1518 1521 1524 1527 1531 1534 1537 1540 1542
1444 1445 1447 1448 1449 1451 1453 1455 1457 1459 1461 1463 1465 1468 1470 1472 1475 1477 1480 1482 1484 1486 1488 1491 1492 1494 1497 1499 1501 1504 1507 1510 1513 1516 1519 1523 1526 1529 1532 1535 1537 1540 1542 1544
1442 1444 1445 1447 1449 1450 1452 1454 1457 1459 1462 1465 1467 1470 1473 1475 1478 1481 1483 1486 1488 1490 1493 1495 1497 1499 1501 1504 1506 1509 1512 1514 1517 1520 1523 1526 1529 1532 1535 1537 1540 1542 1544 1546
1440 1443 1444 1446 1448 1450 1453 1455 1458 1461 1464 1466 1469 1472 1476 1479 1482 1485 1487 1490 1493 1494 1497 1499 1502 1504 1506 1508 1511 1514 1516 1519 1521 1523 1526 1529 1532 1534 1537 1539 1542 1544 1546 1548
1440 1442 1444 1446 1448 1451 1454 1457 1460 1463 1466 1469 1472 1475 1479 1483 1486 1489 1491 1494 1497 1499 1501 1504 1506 1508 1510 1513 1515 1518 1520 1522 1524 1527 1530 1532 1534 1537 1539 1541 1543 1545 1547 1549
1441 1443 1445 1447 1450 1453 1457 1460 1463 1466 1469 1473 1476 1480 1483 1486 1490 1493 1496 1498 1501 1503 1506 1508 1510 1512 1514 1517 1519 1521 1523 1525 1528 1530 1532 1534 1536 1539 1541 1543 1544 1546 1548 1549
1442 1445 1447 1450 1453 1456 1460 1464 1467 1470 1473 1477 1480 1484 1487 1490 1493 1496 1499 1502 1504 1507 1509 1511 1513 1515 1517 1520 1523 1524 1526 1528 1530 1532 1534 1536 1538 1540 1542 1544 1545 1546 1548 1549
1445 1448 1451 1454 1457 1460 1464 1468 1472 1475 1478 1482 1485 1488 1491 1494 1498 1501 1502 1505 1507 1509 1512 1514 1516 1518 1521 1524 1525 1527 1529 1531 1532 1534 1536 1538 1539 1541 1542 1544 1545 1546 1547 1549
1449 1452 1455 1459 1462 1466 1469 1473 1477 1480 1483 1487 1490 1493 1496 1498 1500 1503 1506 1508 1510 1512 1515 1517 1519 1521 1524 1526 1527 1528 1530 1532 1534 1535 1537 1538 1540 1541 1542 1544 1545 1546 1547 1548
1454 1458 1461 1464 1468 1471 1475 1478 1481 1484 1487 1490 1494 1497 1499 1502 1504 1506 1508 1511 1513 1515 1518 1520 1522 1524 1526 1527 1528 1530 1531 1533 1534 1536 1537 1538 1540 1541 1542 1543 1544 1545 1546 1547
1461 1464 1467 1470 1474 1476 1479 1482 1485 1488 1491 1493 1496 1500 1502 1505 1507 1509 1512 1514 1516 1518 1520 1522 1524 1525 1527 1528 1529 1531 1532 1533 1535 1536 1537 1538 1539 1540 1541 1542 1543 1544 1544 1545